Chicago, IL

8:17 PM CST on November 14, 2019 (GMT -0600)
Chicago-O'Hare International

Weather History for KORD - October, 2019

Change the Weather History Date:

Wednesday, October 23, 2019

  Actual Average Record
Temperature  
Mean Temperature 48 °F 50 °F  
Max Temperature 57 °F 60 °F 85 °F (1963)
Min Temperature 39 °F 41 °F 20 °F (1981)
Degree Days  
Heating Degree Days 16 15  
Month to date heating degree days 252 265  
Since 1 July heating degree days 263 383  
Cooling Degree Days 0 0  
Month to date cooling degree days 12 10  
Year to date cooling degree days 960 842  
Moisture  
Dew Point 36 °F    
Average Humidity 63    
Maximum Humidity 93    
Minimum Humidity 49    
Precipitation  
Precipitation 0.02 in 0.10 in 1.40 in (1957)
Month to date precipitation 3.46 2.31  
Year to date precipitation 42.82 30.65  
Snow  
Snow 0.00 in 0.00 in 0.70 in (1929)
Month to date snowfall 0.0 0.1  
Since 1 July snowfall 0.0 0.1  
Since 1 September snowfall 0.0 0.1  
Snow Depth 0.00 in    
Sea Level Pressure  
Sea Level Pressure 29.91 in    
Wind  
Wind Speed 8 mph ()    
Max Wind Speed 20 mph    
Max Gust Speed 26 mph    
Visibility 10.0 miles    
Events Rain    
T = Trace of Precipitation, MM = Missing Value Source: Averaged Metar Reports

Daily Weather History Graph

Daily Weather History Graph

Search for Another Location

Airport or City:

Astronomy

Oct. 23, 2019 Rise Set
Actual Time 7:13 AM CDT 5:58 PM CDT
Civil Twilight 6:44 AM CDT 6:26 PM CDT
Nautical Twilight 6:12 AM CDT 6:59 PM CDT
Astronomical Twilight 5:39 AM CDT 7:31 PM CDT
Moon 1:24 AM CDT (10/23) 3:54 PM CDT (10/23)
Length of Visible Light 11h 41m
Length of Day
10h 45m
Waning Crescent, 26% of the Moon is Illuminated
Oct 23
Waning Crescent
Oct 27
New
Nov 4
First Quarter
Nov 12
Full
Nov 19
Last Quarter

Hourly Weather History & Observations

Time (CDT) Temp. Windchill Dew Point Humidity Pressure Visibility Wind Dir Wind Speed Gust Speed Precip Events Conditions
12:51 AM 44.1 °F 37.4 °F 30.9 °F 60% 29.81 in 10.0 mi SW 13.8 mph 21.9 mph N/A   Clear
1:51 AM 44.1 °F 38.1 °F 30.9 °F 60% 29.82 in 10.0 mi SW 11.5 mph 20.7 mph N/A   Clear
2:51 AM 42.1 °F 36.6 °F 30.9 °F 65% 29.83 in 10.0 mi SW 9.2 mph - N/A   Clear
3:51 AM 42.1 °F 35.7 °F 30.0 °F 62% 29.84 in 10.0 mi SW 11.5 mph - N/A   Clear
4:51 AM 41.0 °F 35.2 °F 30.9 °F 67% 29.86 in 10.0 mi SW 9.2 mph - N/A   Clear
5:51 AM 41.0 °F 34.3 °F 30.9 °F 67% 29.89 in 10.0 mi SW 11.5 mph - N/A   Clear
6:51 AM 39.9 °F 33.9 °F 30.9 °F 70% 29.91 in 10.0 mi SW 9.2 mph - N/A   Partly Cloudy
8:51 AM 42.1 °F 36.1 °F 33.1 °F 70% 29.95 in 10.0 mi SW 10.4 mph 19.6 mph N/A   Partly Cloudy
9:51 AM 48.0 °F - 33.1 °F 56% 29.95 in 10.0 mi WSW 9.2 mph - N/A   Partly Cloudy
10:51 AM 48.9 °F - 34.0 °F 56% 29.96 in 10.0 mi SSW 8.1 mph - N/A   Mostly Cloudy
11:51 AM 48.9 °F - 35.1 °F 59% 29.97 in 10.0 mi SW 8.1 mph - N/A   Overcast
12:51 PM 48.9 °F - 35.1 °F 59% 29.94 in 10.0 mi South 4.6 mph - N/A   Overcast
1:51 PM 53.1 °F - 39.0 °F 59% 29.93 in 10.0 mi SSW 6.9 mph - N/A   Mostly Cloudy
2:51 PM 55.9 °F - 37.9 °F 51% 29.90 in 10.0 mi South 8.1 mph 19.6 mph N/A   Scattered Clouds
3:51 PM 57.9 °F - 39.0 °F 49% 29.91 in 10.0 mi SSW 11.5 mph - N/A   Mostly Cloudy
4:51 PM 57.0 °F - 39.0 °F 51% 29.89 in 10.0 mi SSE 5.8 mph - N/A   Mostly Cloudy
5:51 PM 55.9 °F - 37.0 °F 49% 29.89 in 10.0 mi South 5.8 mph - N/A   Overcast
6:51 PM 55.9 °F - 37.9 °F 51% 29.92 in 10.0 mi SSW 3.5 mph - N/A   Overcast
7:51 PM 54.0 °F - 39.9 °F 59% 29.94 in 10.0 mi Calm Calm - N/A   Overcast
8:51 PM 52.0 °F - 43.0 °F 71% 29.94 in 10.0 mi NNE 5.8 mph - 0.00 in Rain Light Rain
9:51 PM 50.0 °F - 45.0 °F 83% 29.95 in 10.0 mi North 8.1 mph - 0.01 in Rain Light Rain
10:51 PM 48.9 °F - 46.0 °F 90% 29.98 in 10.0 mi North 17.3 mph - 0.01 in Rain Light Rain
11:51 PM 46.9 °F - 45.0 °F 93% 29.99 in 10.0 mi NNE 11.5 mph - 0.00 in   Overcast